YO8SSH-13 Weather Reports


time (UTC)temp
C
wind
direction
speed
KPH
gust
KPH
rain 1hr
cm
rain 24hr
cm
rain mn
cm
humidity
%
barometer
mb
20260508043940 15 225 0.0 0.0 0.00 0.56 0.10 85 1012.0
20260508042441 15 225 0.0 0.0 0.00 0.56 0.10 85 1012.0
20260508040940 15 202 0.0 0.0 0.00 0.56 0.10 86 1012.0
20260508035441 15 180 0.0 0.0 0.10 0.56 0.10 86 1012.0
20260508033942 15 180 0.0 0.0 0.10 0.56 0.10 85 1012.0
20260508032440 15 180 0.0 1.6 0.10 0.56 0.10 85 1012.0
20260508030941 15 225 0.0 1.6 0.10 0.56 0.10 85 1012.0
20260508025441 15 180 0.0 0.0 0.00 0.46 0.00 85 1012.0
20260507182440 18 248 0.0 0.0 0.00 0.46 0.10 67 1011.0
20260507180941 18 248 0.0 0.0 0.00 0.46 0.10 67 1011.0
20260507175440 18 22 0.0 0.0 0.41 0.46 0.46 66 1010.0
20260507173940 18 202 0.0 3.2 0.41 0.46 0.46 65 1010.0
20260507172441 18 112 0.0 3.2 0.46 0.51 0.51 65 1010.0
20260507170941 18 202 1.6 6.4 0.46 0.51 0.51 66 1011.0
20260507165440 18 112 0.0 0.0 0.05 0.05 0.05 63 1010.0
20260507163940 20 112 0.0 0.0 0.05 0.05 0.05 60 1010.0
20260507162445 21 158 1.6 3.2 0.00 0.00 0.00 59 1010.0
20260507160940 22 338 3.2 3.2 0.00 0.00 0.00 46 1011.0
20260507155440 22 338 3.2 3.2 0.00 0.00 0.00 46 1011.0
20260507153940 22 338 3.2 6.4 0.00 0.00 0.00 46 1011.0
20260507152440 23 202 1.6 4.8 0.00 0.00 0.00 45 1011.0
20260507150941 23 68 0.0 6.4 0.00 0.00 0.00 42 1011.0
20260507145441 24 158 3.2 11.3 0.00 0.00 0.00 38 1010.0
20260507143939 25 158 0.0 8.0 0.00 0.00 0.00 37 1010.0
20260507142441 25 90 4.8 6.4 0.00 0.00 0.00 36 1010.0
20260507140941 26 292 3.2 6.4 0.00 0.00 0.00 35 1010.0
20260507135441 27 158 3.2 3.2 0.00 0.00 0.00 35 1010.0
20260507133940 27 112 3.2 8.0 0.00 0.00 0.00 34 1010.0
20260507132440 27 202 3.2 6.4 0.00 0.00 0.00 35 1010.0
20260507130941 27 135 3.2 6.4 0.00 0.00 0.00 35 1010.0
20260507125441 27 158 0.0 6.4 0.00 0.00 0.00 35 1010.0
20260507113941 28 158 3.2 3.2 0.00 0.00 0.00 34 1010.0
20260507112440 28 158 3.2 3.2 0.00 0.00 0.00 34 1011.0
20260507110941 28 112 3.2 8.0 0.00 0.00 0.00 34 1011.0
20260507105440 28 135 8.0 14.5 0.00 0.00 0.00 33 1011.0
20260507095441 27 158 1.6 1.6 0.00 0.00 0.00 35 1012.0
20260507093939 27 158 1.6 1.6 0.00 0.00 0.00 35 1012.0
20260507092440 27 180 4.8 4.8 0.00 0.00 0.00 37 1011.0
20260507090941 27 158 4.8 4.8 0.00 0.00 0.00 37 1012.0
20260507085440 26 90 9.7 9.7 0.00 0.00 0.00 39 1012.0
20260507083941 26 68 3.2 3.2 0.00 0.00 0.00 40 1012.0
20260507082441 25 90 3.2 3.2 0.00 0.00 0.00 44 1012.0
20260507080940 25 202 1.6 1.6 0.00 0.00 0.00 44 1012.0
20260507072440 22 158 1.6 1.6 0.00 0.00 0.00 49 1012.0
20260507070939 22 158 1.6 1.6 0.00 0.00 0.00 49 1012.0
20260507065440 22 112 0.0 3.2 0.00 0.00 0.00 49 1012.0